Regional Weather Roundup
Issued by NWS

Home | Current Version | Previous Version | Graphics & Text | Print | Product List | Glossary Off
Versions: 1 2 3 4 5 6 7 8 9 10 11 12 13 14 15 16 17 18 19 20 21 22 23 24 25 26 27 28 29 30 31 32 33 34 35 36 37 38 39 40 41 42 43 44 45 46 47 48 49 50

182
ASUS43 KMKX 261400
RWRWI

WISCONSIN REGIONAL WEATHER ROUNDUP
NATIONAL WEATHER SERVICE MILWAUKEE/SULLIVAN WI
900 AM CDT FRI MAY 26 2017

NOTE: "FAIR" INDICATES FEW OR NO CLOUDS BELOW 12,000 FEET WITH NO
SIGNIFICANT WEATHER AND/OR OBSTRUCTIONS TO VISIBILITY.

WIZ001-002-006>008-014>016-023>028-261500-
NORTHWEST WISCONSIN

CITY           SKY/WX    TMP DP  RH WIND       PRES   REMARKS
SUPERIOR ARPT  NOT AVBL
ASHLAND        CLOUDY    58  54  86 NE3       29.76S
HAYWARD        CLOUDY    62  50  64 S8        29.76S
SIREN          CLOUDY    62  52  71 S6        29.73R
CUMBERLAND     CLOUDY    61  54  77 SE7       29.75S
RICE LAKE      PTSUNNY   62  54  74 SE10      29.76F
CHETEK         MOSUNNY   64  56  76 SE8       29.75F
LADYSMITH      CLOUDY    62  53  73 SE6       29.79S
EAU CLAIRE     NOT AVBL
MENOMONIE      SUNNY     64  56  77 E7        29.75S
NEW RICHMOND   CLOUDY    66  54  66 S9        29.73S
OSCEOLA        CLOUDY    63  54  72 SE5       29.75S
$$

WIZ003>005-009-010-017-018-261500-
NORTH CENTRAL WISCONSIN

CITY           SKY/WX    TMP DP  RH WIND       PRES   REMARKS
MANITOWISH WTR CLOUDY    56  56 100 S7        29.80F
ARBOR VITAE    CLOUDY    57  54  89 S5        29.81S
WOODRUFF       CLOUDY    57  54  89 S5        29.81S
RHINELANDER    CLOUDY    58  54  86 SE6       29.83S
EAGLE RIVER    CLOUDY    56  51  82 S5        29.82S
LAND O LAKES   CLOUDY    55  53  90 CALM      29.84R
PHILLIPS       CLOUDY    58  54  85 SE3       29.79S
TOMAHAWK       CLOUDY    57  53  88 SE3       29.82S
MEDFORD        CLOUDY    59  55  84 E6        29.80S
MERRILL        CLOUDY    57  55  94 SE5       29.83S
$$

WIZ029-030-035-036-043>047-261500-
CENTRAL WISCONSIN

CITY           SKY/WX    TMP DP  RH WIND       PRES   REMARKS
WAUSAU         CLOUDY    60  55  83 E7        29.81S
MOSINEE        PTSUNNY   59  59 100 E5        29.83S
MARSHFIELD     SUNNY     62  56  80 SE9       29.79F
STEVENS POINT  MOSUNNY   58  56  94 E8        29.83S
WAUPACA        CLOUDY    60  58  92 E6        29.83F
WAUTOMA        CLOUDY    63  56  78 SE8       29.83
WISC RAPIDS    SUNNY     63  58  83 SE7       29.83R
CAMP DOUGLAS   NOT AVBL
$$

WIZ011>013-019>022-031-037>040-048>050-261500-
NORTHEAST WISCONSIN

CITY           SKY/WX    TMP DP  RH WIND       PRES   REMARKS
ANTIGO         CLOUDY    56  54  93 SE6       29.84S
SHAWANO        CLOUDY    61  55  81 SE5       29.85F
OCONTO         CLOUDY    55  53  93 CALM      29.85S
STURGEON BAY   PTSUNNY   58  54  86 W3        29.86R
GREEN BAY      MOSUNNY   59  56  89 E5        29.85F
MANITOWOC      CLOUDY    57  54  88 SE5       29.87S
APPLETON       PTSUNNY   59  55  88 SE7       29.83R
CLINTONVILLE   CLOUDY    59  54  82 E7        29.83F
OSHKOSH        CLOUDY    62  54  74 E8        29.83S
$$

WIZ032>034-041-042-053>061-261500-
SOUTHWEST WISCONSIN

CITY           SKY/WX    TMP DP  RH WIND       PRES   REMARKS
LA CROSSE      MOSUNNY   65  58  78 CALM      29.78R
SPARTA         SUNNY     64  58  79 SE5       29.79R
VIROQUA        MOSUNNY   62  56  82 MISG      29.79R
BOSCOBEL       MOSUNNY   65  58  78 CALM      29.79S
PRAIRIE DU CHI CLOUDY    64  55  73 E6        29.77S
PLATTEVILLE    PTSUNNY   62  59  91 SE8       29.80S
$$

WIZ056-057-062-063-064-067-068-261500-
SOUTH CENTRAL WISCONSIN

CITY           SKY/WX    TMP DP  RH WIND       PRES   REMARKS
REEDSBURG      SUNNY     64  59  85 CALM      29.80S
BARABOO/DELLS  SUNNY     64  56  75 E5        29.81S
LONE ROCK      CLOUDY    63  56  78 E8        29.79S
MINERAL POINT  MOSUNNY   63  59  88 SE8       29.80S
MADISON        PTSUNNY   64  56  75 SE5       29.81S
MIDDLETON      SUNNY     64  59  82 E3        29.82S
WATERTOWN      CLOUDY    60  56  88 E7        29.84R
MONROE         MOSUNNY   63  55  77 SE6       29.81F
JANESVILLE     MOSUNNY   66  57  72 SE3       29.83R
$$

WIZ051-052-058>065-066-070>072-261500-
SOUTHEAST WISCONSIN

CITY           SKY/WX    TMP DP  RH WIND       PRES   REMARKS
MILWAUKEE      PTSUNNY   56  54  93 E5        29.87R FOG
WAUKESHA       SUNNY     59  54  82 E7        29.86S
MILWAUKEE/TIMM MOSUNNY   59  52  77 SE6       29.86F
RACINE         CLOUDY    58  52  80 MISG      29.88S
KENOSHA        CLOUDY    59  53  80 E7        29.87R
FOND DU LAC    MOSUNNY   64  53  67 E7        29.84F
SHEBOYGAN      MOSUNNY   57  55  93 E5        29.86S
WEST BEND      SUNNY     59  55  88 SE3       29.85S
JUNEAU         CLOUDY    59  54  84 E5        29.84F
$$

LSZ147-162-261500-
LAKE SUPERIOR

STATION/POSITION TIME  TEMP    WIND        PRES    WAVE
                       AIR SEA DIR/SP/G            HT/PER
                 (UTC) (F)     (DEG/KT/KT) (MB)    (FT/S)
W MID LAKE BUOY  1250   43 37  230/  2/  4 1008.8F   1
DEVILS ISLAND    1300   46     130/  6/  7 1008.3F
PORT WING        1330   45     350/  3/  4 1007.1F
SAXON HARBOR     1340   51     330/  1/  2 1007.8S
$$

LMZ867-665-643>646-261500-
LAKE MICHIGAN

STATION/POSITION TIME  TEMP    WIND        PRES    WAVE
                       AIR SEA DIR/SP/G            HT/PER
                 (UTC) (F)     (DEG/KT/KT) (MB)    (FT/S)
CHAMBERS ISLAND  1340   57     270/  4/  6 1010.5R
N MID LAKE BUOY  1250   44 41  280/  4/  4 1011.7R   0
NORTHPORT PIER   1340   53      CALM  /  2 1010.5S
SISTER BAY       1251   60        CALM       N/A
KEWAUNEE LAKESHO 1330   49     140/  3/  5 1010.8R
SHEBOYGAN LAKESH 1300   48      50/  5/  5 1011.3R
PORT WASHINGTON  1330   51      50/  4/  5 1012.5R
ATWATER BUOY     1209   49      60/  4/  6 1011.0F
MILWAUKEE LAKESH 1330   49      80/  4/  4   N/A
S MID LAKE BUOY  1250   45 45   20/  8/ 10 1011.5F   1/ 4
KENOSHA   LAKESH 1300   53      80/  6/  6 1011.2
$$

TC  - TEMPERATURE IN CELSIUS
VSB - VISIBILITY IN STATUTE MILES
WCI - WIND CHILL INDEX
HX  - HEAT INDEX





USA.gov is the U.S. government's official web portal to all federal, state and local government web resources and services.